STARLINK-30588, 58062

Orbit data source: Space-Track

STARLINK-30588, 58062 is a payload satellite owned by SpaceX/Seattle (US) in LEO that was launched on Fri, 13 Oct 2023 UTC via an FALCON 9 launch vehicle from the Air Force Eastern Test Range (AFETR). Payload-class satellites include a variety of spacecraft equipped with specific instruments for various scientific and technological missions. These include communications satellites like Starlink; space stations such as the ISS; scientific satellites like the Hubble; Earth observation satellites from companies like Planet Labs, Umbra, and HawkEye 360; GPS; miniature CubeSats for education and research; and military/defense satellites.

Loading next visibility...
Identifier
58062, 2023-158M
Orbit
LEO
Country
Flag of USUS
Related business
Manufacturer
SpaceX/Seattle
Mission
Operational Commercial Communications
Bus & Motor
STARLINK V2M, Unknown motor
Mass
730 kg wet, ~700 kg dry
Launch date (UTC)
2023-10-13 (3 years ago)
Launch vehicle
FALCON 9
Launch site
Air Force Eastern Test Range (AFETR)
Object type
Payload
Rocket body
Debris
Shape & HBR
Box + 2 Pan, 17.7 m
Radar Cross Section
33.884 m², Large (>1 m²)

Expand to show TLE details & history
Last TLE update: 3 days ago

TLE from 3 days ago
0 STARLINK-30588
1 58062U 23158M   26170.06031985 -.00000066  00000-0  71277-5 0  9990
2 58062  43.0025 174.5274 0001071 278.6213  81.4517 15.27573972149070
Epoch: 2026-06-19T01:26Z
TLE epoch observation values (Epoch: 2026-06-19T01:26:51.635Z)
Latitude
-0.00002°
Longitude
-114.48249°
Altitude
482.734 km
Speed
7.626 km/s
True Right ascension
11h 38m 06s
True Declination
0° 00' 00"
Sunlit
Object was in daylight at epoch
Visualization orbit readout
Latitude
Unknown
Longitude
Unknown
Altitude
Unknown
Speed
Unknown
Apparent Right ascension
Unknown
Apparent Declination
Unknown
Sunlit
N/A
Visualization observer readout
Local Sidereal Time
21:32:55
Azimuth
Unknown
Elevation
Unknown
Doppler factor
Unknown
Orbital elements
Apogee altitude
485.747 km
Perigee altitude
484.277 km
Semi-major axis
6,863.149 km
Eccentricity
0.00011
Inclination
43.0025°
RAAN
174.5274°
Arg. of periapsis
278.6213°
True anomaly
81.46384°
Mean anomaly
81.4517°
Eccentric anomaly
81.45777°
Mean motion
3.81732 °/min
Orbital period
94.31 mins
BSTAR
0.0000071277
Loading maneuver chart data...
Computing Atmospheric mass density...
Loading historical data...
Loading historical data...
Loading historical data...
Loading historical data...
Loading historical data...
Loading historical data...
Loading historical data...

Documentation

Showing up to 5 results
|